Weather History for Paducah, KY

Change the Weather History Date:

Sunday, April 21, 2013

  Actual Average Record
Temperature  
Mean Temperature 52 °F 60 °F  
Max Temperature 65 °F 71 °F 90 °F (1987)
Min Temperature 39 °F 48 °F 30 °F (1943)
Degree Days  
Heating Degree Days 13 7  
Month to date heating degree days 210 197  
Since 1 July heating degree days 4036 4016  
Cooling Degree Days 0 1  
Month to date cooling degree days 31 21  
Year to date cooling degree days 31 28  
Growing Degree Days 2 (Base 50)    
Moisture  
Dew Point 33 °F    
Average Humidity 52    
Maximum Humidity 76    
Minimum Humidity 28    
Precipitation  
Precipitation 0.00 in 0.18 in 2.13 in (1951)
Month to date precipitation 3.91 3.21  
Year to date precipitation 19.68 14.73  
Snow  
Snow 0.00 in 0.00 in 0.00 in (2002)
Month to date snowfall 0.0 0.0  
Since 1 July snowfall 6.8 9.1  
Snow Depth 0.00 in    
Sea Level Pressure  
Sea Level Pressure 30.33 in    
Wind  
Wind Speed 6 mph (East)    
Max Wind Speed 14 mph    
Max Gust Speed 18 mph    
Visibility 10 miles    
Events      
T = Trace of Precipitation, MM = Missing Value Source: NWS Daily Summary

Daily Weather History Graph

Daily Weather History Graph

Search for Another Location

Airport:

Trip Planner

Search our weather history database for the weather conditions in past years. The results will help you decide how hot, cold, wet, or windy it might be!

Date:

Astronomy

Apr. 21, 2013 Rise Set
Actual Time 6:12 AM CDT 7:35 PM CDT
Civil Twilight 5:45 AM CDT 8:02 PM CDT
Nautical Twilight 5:12 AM CDT 8:35 PM CDT
Astronomical Twilight 4:38 AM CDT 9:09 PM CDT
Moon 3:26 PM CDT (4/21) 3:28 AM CDT (4/21)
Length of Visible Light 14h 17m
Length of Day
13h 23m
Waxing Gibbous, 80% of the Moon is Illuminated
Apr 21
Waxing Gibbous
Apr 25
Full
May 2
Last Quarter
May 9
New
May 17
First Quarter

Hourly Weather History & Observations

Time (CDT) Temp. Windchill Dew Point Humidity Pressure Visibility Wind Dir Wind Speed Gust Speed Precip Events Conditions
12:53 AM 45.0 °F 41.2 °F 34.0 °F 65% 30.33 in 10.0 mi East 6.9 mph - N/A   Clear
1:53 AM 43.0 °F 39.5 °F 33.1 °F 68% 30.34 in 10.0 mi ENE 5.8 mph - N/A   Clear
2:53 AM 43.0 °F 39.5 °F 33.1 °F 68% 30.34 in 10.0 mi ENE 5.8 mph - N/A   Clear
3:53 AM 41.0 °F 36.4 °F 32.0 °F 70% 30.34 in 10.0 mi ENE 6.9 mph - N/A   Clear
4:53 AM 41.0 °F 39.0 °F 32.0 °F 70% 30.35 in 10.0 mi NE 3.5 mph - N/A   Clear
5:53 AM 39.9 °F 35.8 °F 32.0 °F 73% 30.37 in 10.0 mi ENE 5.8 mph - N/A   Clear
6:53 AM 41.0 °F 35.8 °F 33.1 °F 73% 30.39 in 10.0 mi East 8.1 mph - N/A   Clear
7:53 AM 45.0 °F 39.7 °F 33.1 °F 63% 30.40 in 10.0 mi East 10.4 mph - N/A   Clear
8:53 AM 48.9 °F - 34.0 °F 56% 30.41 in 10.0 mi East 6.9 mph - N/A   Clear
9:53 AM 53.1 °F - 35.1 °F 50% 30.41 in 10.0 mi East 6.9 mph - N/A   Clear
10:53 AM 57.0 °F - 37.0 °F 47% 30.41 in 10.0 mi ESE 6.9 mph - N/A   Clear
11:53 AM 59.0 °F - 34.0 °F 39% 30.39 in 10.0 mi East 10.4 mph - N/A   Clear
12:53 PM 60.1 °F - 34.0 °F 38% 30.36 in 10.0 mi Variable 5.8 mph - N/A   Clear
1:53 PM 63.0 °F - 36.0 °F 37% 30.33 in 10.0 mi East 11.5 mph 18.4 mph N/A   Clear
2:53 PM 63.0 °F - 36.0 °F 37% 30.30 in 10.0 mi ESE 6.9 mph - N/A   Clear
3:53 PM 64.0 °F - 33.1 °F 31% 30.27 in 10.0 mi East 10.4 mph 16.1 mph N/A   Clear
4:53 PM 64.0 °F - 30.9 °F 29% 30.26 in 10.0 mi East 6.9 mph - N/A   Clear
5:53 PM 62.1 °F - 30.9 °F 31% 30.26 in 10.0 mi East 8.1 mph - N/A   Clear
6:53 PM 60.1 °F - 30.9 °F 33% 30.26 in 10.0 mi ENE 6.9 mph - N/A   Clear
7:53 PM 54.0 °F - 35.1 °F 49% 30.27 in 10.0 mi ENE 4.6 mph - N/A   Clear
8:53 PM 54.0 °F - 34.0 °F 47% 30.27 in 10.0 mi ENE 4.6 mph - N/A   Clear
9:53 PM 52.0 °F - 34.0 °F 50% 30.27 in 10.0 mi ENE 4.6 mph - N/A   Clear
10:53 PM 51.1 °F - 33.1 °F 50% 30.27 in 10.0 mi ENE 3.5 mph - N/A   Clear
11:53 PM 50.0 °F - 32.0 °F 50% 30.27 in 10.0 mi Calm Calm - N/A   Clear